Weather History for HELX - February, 2013

Change the Weather History Date:

Friday, February 8, 2013

  Actual Average Record
Temperature  
Mean Temperature 62 °F -  
Max Temperature 79 °F 76 °F - ()
Min Temperature 46 °F 49 °F - ()
Degree Days  
Heating Degree Days 2    
Growing Degree Days 12 (Base 50)    
Moisture  
Dew Point 44 °F    
Average Humidity 50    
Maximum Humidity 71    
Minimum Humidity 21    
Precipitation  
Precipitation 0.00 in 0.00 in - ()
Sea Level Pressure  
Sea Level Pressure 29.95 in    
Wind  
Wind Speed 0 mph ()    
Max Wind Speed 4 mph    
Max Gust Speed -    
Visibility 5.0 miles    
Events      
T = Trace of Precipitation, MM = Missing Value Source: Averaged Metar Reports

Daily Weather History Graph

Daily Weather History Graph

Search for Another Location

Airport or City:

Trip Planner

Search our weather history database for the weather conditions in past years. The results will help you decide how hot, cold, wet, or windy it might be!

Date:

Astronomy

Feb. 08, 2013 Rise Set
Actual Time 6:28 AM EET 5:38 PM EET
Civil Twilight 6:05 AM EET 6:01 PM EET
Nautical Twilight 5:38 AM EET 6:29 PM EET
Astronomical Twilight 5:11 AM EET 6:56 PM EET
Moon 4:35 AM EET (2/8) 3:52 PM EET (2/8)
Length of Visible Light 11h 56m
Length of Day
11h 09m
Waning Crescent, 5% of the Moon is Illuminated
Feb 8
Waning Crescent
Feb 10
New
Feb 17
First Quarter
Feb 25
Full
Mar 4
Last Quarter

Hourly Weather History & Observations

Time (EET) Temp. Dew Point Humidity Pressure Visibility Wind Dir Wind Speed Gust Speed Precip Events Conditions
12:00 AM 55.4 °F 41.0 °F 58% 29.95 in - Calm Calm - N/A   Clear
1:00 AM 53.6 °F 41.0 °F 62% 29.95 in - Calm Calm - N/A   Clear
2:00 AM 54 °F 41 °F 50% 29.96 in 6 mi Calm Calm - -  
2:00 AM 53.6 °F 41.0 °F 62% 29.95 in - Calm Calm - N/A   Clear
3:00 AM 50.0 °F 41.0 °F 71% 29.95 in - Calm Calm - N/A   Clear
4:00 AM 48.2 °F 39.2 °F 71% 29.95 in - Calm Calm - N/A   Clear
5:00 AM 50.0 °F 37.4 °F 62% 29.95 in - Calm Calm - N/A   Clear
6:00 AM 48.2 °F 37.4 °F 66% 29.95 in - Calm Calm - N/A   Clear
7:00 AM 50.0 °F 39.2 °F 66% 29.98 in - Calm Calm - N/A   Clear
8:00 AM 53 °F 41 °F 54% 29.99 in 6 mi Calm Calm - -  
8:00 AM 53.6 °F 41.0 °F 62% 29.98 in - Calm Calm - N/A   Clear
9:00 AM 59.0 °F 44.6 °F 59% 30.01 in - NE 2.3 mph - N/A   Clear
10:00 AM 64.4 °F 48.2 °F 56% 29.98 in 3.7 mi Calm Calm - N/A   Unknown
11:00 AM 69.8 °F 48.2 °F 46% 29.98 in 3.7 mi Calm Calm - N/A   Unknown
12:00 PM 71.6 °F 50.0 °F 46% 29.95 in 3.7 mi WNW 2.3 mph - N/A   Unknown
1:00 PM 75.2 °F 50.0 °F 41% 29.92 in 5.0 mi Calm Calm - N/A   Unknown
2:00 PM 77 °F 44 °F 21% 29.92 in 6 mi SSW 2.3 mph - -  
2:00 PM 77.0 °F 44.6 °F 32% 29.92 in - SSW 2.3 mph - N/A   Clear
3:00 PM 77.0 °F 46.4 °F 34% 29.92 in - SSW 2.3 mph - N/A   Clear
4:00 PM 77.0 °F 46.4 °F 34% 29.89 in - Calm Calm - N/A   Clear
5:00 PM 77.0 °F 48.2 °F 36% 29.92 in - Calm Calm - N/A   Clear
6:00 PM 71.6 °F 48.2 °F 43% 29.92 in - NNE 2.3 mph - N/A   Clear
7:00 PM 69.8 °F 44.6 °F 40% 29.95 in - North 2.3 mph - N/A   Clear
8:00 PM 65 °F 45 °F 37% 29.96 in 6 mi Calm Calm - -  
8:00 PM 64.4 °F 44.6 °F 49% 29.95 in - Calm Calm - N/A   Clear
9:00 PM 62.6 °F 42.8 °F 48% 29.95 in - South 3.5 mph - N/A   Clear
10:00 PM 60.8 °F 41.0 °F 48% 29.98 in - Calm Calm - N/A   Clear
11:00 PM 59.0 °F 41.0 °F 51% 29.98 in - Calm Calm - N/A   Clear